Regional Weather Roundup
Issued by NWS

Home | Current Version | Previous Version | Graphics & Text | Print | Product List | Glossary On
Versions: 1 2 3 4 5 6 7 8 9 10 11 12 13 14 15 16 17 18 19 20 21 22 23 24 25 26 27 28 29 30 31 32 33 34 35 36 37 38 39 40 41 42 43 44 45 46 47 48 49 50
000
ASUS43 KLOT 051500
RWRIL

ILLINOIS REGIONAL WEATHER ROUNDUP
NATIONAL WEATHER SERVICE CHICAGO/ROMEOVILLE IL
900 AM CST THU MAR 05 2015

NOTE: "FAIR" INDICATES FEW OR NO CLOUDS BELOW 12,000 FEET WITH NO
SIGNIFICANT WEATHER AND/OR OBSTRUCTIONS TO VISIBILITY.

* THESE STATIONS ARE NOT UNDER NWS QUALITY CONTROL. THEY ALSO MAY NOT
  REPORT WEATHER SUCH AS PRECIPITATION OR FOG.

ILZ001-002-007-009-015-016-024-051600-
NORTHWEST ILLINOIS

CITY           SKY/WX    TMP DP  RH WIND       PRES   REMARKS
MOLINE         SUNNY      4  -7  60 NW9       30.55R WCI -10
STERLING*      SUNNY      9  -2  61 NW6       30.51R WCI  -1
$$

ILZ003-004-008-010-011-017-018-051600-
NORTH CENTRAL ILLINOIS

CITY           SKY/WX    TMP DP  RH WIND       PRES   REMARKS
ROCKFORD       SUNNY      6  -7  54 N7        30.51R WCI  -6
$$

ILZ005-006-012>014-019>023-051600-
NORTHEAST ILLINOIS

CITY           SKY/WX    TMP DP  RH WIND       PRES   REMARKS
CHICAGO-OHARE  MOSUNNY   10  -6  48 NW10      30.46R WCI  -4
CHICAGO-MIDWAY MOSUNNY   13  -5  44 NW10      30.47R WCI   0
AURORA         SUNNY      7  -4  60 NW10      30.49R WCI  -8
WAUKEGAN       SUNNY      7  -9  48 NW8       30.46R WCI  -6
DUPAGE AIRPORT SUNNY      9  -6  50 NW8       30.46R WCI  -3
WHEELING       SUNNY     10  -7  46 NW10      30.49R WCI  -4
NORTHERLY ISL    N/A     15  -2  46 W9          N/A  WCI   3
$$

LMZ740>746-051600-
SOUTHERN LAKE MICHIGAN

STATION/POSITION SKY/WX   TEMP    WIND        PRES    VSBY  WAVE
                          AIR SEA DIR/SP/G                  HT/PER
                          (F)     (DEG/KT/KT) (MB)    (MI)  (FT/S)
WAUKEGAN HARBOR             8                   N/A
HARRISON CRIB              11     310/ 12/ 14   N/A
BURNHAM HARBOR             16     290/  8/ 10   N/A
CALUMET HARBOR             13     280/  8/ 12 1029.8R
MICHIGAN CITY              16     270/  8/  9   N/A
$$

ILZ025>027-034>036-040-047-049-050-058-095>099-051600-
WEST-CENTRAL ILLINOIS

CITY           SKY/WX    TMP DP  RH WIND       PRES   REMARKS
QUINCY         SUNNY     10   0  63 NW10      30.55R WCI  -4
$$

ILZ028>032-037-038-041>044-048-051>054-059>061-051600-
CENTRAL ILLINOIS

CITY           SKY/WX    TMP DP  RH WIND       PRES   REMARKS
DECATUR        SUNNY     12   1  61 NW12      30.49R WCI  -2
PEORIA         SUNNY      9  -2  61 NW8       30.53R WCI  -3
SPRINGFIELD    SUNNY     14   0  53 N10       30.53R WCI   1
TAYLORVILLE    NOT AVBL
$$

ILZ033-039-045-046-055>057-062-063-051600-
EAST-CENTRAL ILLINOIS

CITY           SKY/WX    TMP DP  RH WIND       PRES   REMARKS
CHAMPAIGN      SUNNY     10   1  67 NW14      30.46R WCI  -6
MATTOON        SUNNY     12   2  64 NW14      30.46R WCI  -3
$$

ILZ079-100>102-051600-
SOUTHWEST ILLINOIS

CITY           SKY/WX    TMP DP  RH WIND       PRES   REMARKS
BELLEVILLE     SUNNY     18   0  45 N13       30.52R WCI   5
CAHOKIA*       SUNNY     19   4  51 N10       30.54R WCI   7
$$

ILZ064>066-069>071-074>076-080>082-084>086-088>090-092>094-051600-
SOUTH-CENTRAL ILLINOIS

CITY           SKY/WX    TMP DP  RH WIND       PRES   REMARKS
CARBONDALE     SUNNY     19   5  54 N8        30.49R WCI   9
MARION         SUNNY     21   7  53 N12       30.49R WCI   9
MT. VERNON     MOSUNNY   18   1  49 CALM      30.48R
$$

ILZ067-068-072-073-078-083-087-091-051600-
SOUTHEAST ILLINOIS

CITY           SKY/WX    TMP DP  RH WIND       PRES   REMARKS
LAWRENCEVILLE  PTSUNNY   19   6  57 NW12      30.46R WCI   7
$$

ABBREVIATIONS USED IN REMARKS
   TC - TEMPERATURE IN CELSIUS
  WCI - WIND CHILL INDEX
   HX - HEAT INDEX
  VSB - VISIBILITY
$$




USA.gov is the U.S. government's official web portal to all federal, state and local government web resources and services.